Карточка аэропорта UNBB

Внимание!
Информация на этой странице в стадии наполнения.
Если вы не увидели какой-то информации, или заметили неточность - пожалуйста сообщите нам!
Спасибо!
Команда RU-STAFF
Название аэропортаМихайловка
Название аэропорта (англ.)Mikhaylovka
Превышение837 ft. (255.1 m.)
Координаты53°21.798', 83°32.382'
Высота перехода700m
Эшелон переходаFL050
Коды ответчика5301-5307
Зона ОрВДНовосибирск РПИ (UNNT)
Данные METARUNBB 130100Z 30001MPS 9999 BKN040 16/15 Q1013 R24/CLRD66 NOSIG RMK QFE738
Проноз погоды (TAF)UNBB 122300Z 1300/1324 34003MPS 8000 BKN040CB TEMPO 1300/1302 0150 FG BKN001 BKN010CB TEMPO 1308/1315 03005G13MPS -TSRA
NOTAMshow/hide NOTAM
AWOS   TABLE

Информация о ВПП

ВПП Длина ВПП (м.) Покрытие Курс ВПП Частота ILS
062853Асфальтобетон59 
242853Асфальтобетон239108.7

Диспетчерские позиции




Спутниковое изображение